Other Public Products
Issued by NWS Charleston, SC

Home | Current Version | Previous Version | Text Only | Print | Product List | Glossary On
Versions: 1 2 3 4 5 6 7 8 9 10 11 12 13 14 15 16 17 18 19 20 21 22 23 24 25 26 27 28 29 30 31 32 33 34 35 36 37 38 39 40 41 42 43 44 45 46 47 48 49 50
000
FPUS82 KCHS 181512
OPUCHS

TEST...KCHS/KSAV Gateway Observations...TEST
National Weather Service Charleston SC
1100 AM EDT FRI AUG 18 2017

NOTE: "fair" indicates few or no clouds below 12,000 feet with no
significant weather and/or obstructions to visibility.

SCZ050-WAZ558-NCZ071-TXZ119-213-PAZ071-DCZ001-FLZ074-172-MI076-
NYZ176-178-MAZ016-IL014-TNZ027-NJZ106-GAZ044-MD014-181600-

...Gateway Observations for Charleston International...

CITY           SKY/WX    TMP DP  RH WIND       PRES   REMARKS
Chas Airport   MOSUNNY   90  76  63 NW8       29.99S HX 101
Seattle        PTSUNNY   57  54  89 SW3       30.18R
Charlotte      MOSUNNY   85  77  77 SW7       29.97S HX  95
Dallas DFW     CLOUDY    83  72  69 SW6       30.05R
Dallas Love    CLOUDY    82  72  71 SW5       30.05R
Philladelphia  CLOUDY    80  75  84 S8        29.87F
Wash National  PTSUNNY   83  77  82 S9        29.87F HX  92
Baltimore      PTSUNNY   83  77  82 VRB5      29.86F HX  92
Miami          PTSUNNY   91  73  55 VRB3      30.04R HX  99
Detroit        CLOUDY    74  63  68 W20G25    29.77S
Newark         LGT RAIN  75  74  96 SW3       29.87S FOG
Laguardia      CLOUDY    76  75  97 VRB5      29.87S
J F K          CLOUDY    77  77 100 S10       29.89S
Boston Logan   CLOUDY    75  69  81 S12       29.91F
Ft. Lauderdale MOSUNNY   90  74  59 CALM      30.03S HX  99
Chicago O`Hare PTSUNNY   72  61  68 NW14G22   29.87R
Chicago Midway PTSUNNY   73  62  68 W10       29.87R
Houston Bush   MOSUNNY   86  76  71 W9        30.06R HX  96
Houston Hobby  MOSUNNY   89  77  67 SW7       30.05R HX 101
Nashville      PTSUNNY   83  67  58 W6        30.01R
Atlanta        MOSUNNY   84  73  69 W8        30.03S HX  90

$$

GAZ044-118-TXZ119-213-NCZ071-DCZ001-MDZ014-506-PAZ021-071-NJZ106-
NYZ176-178-MAZ106-OHZ011-021-055-MIZ076-KYZ091-ILZ014-INZ047-
MNZ060-ONZ431-181600-

...Gateway Observations for Savannah International...

CITY           SKY/WX    TMP DP  RH WIND       PRES   REMARKS
Savannah Arpt  MOSUNNY   91  75  59 VRB5      30.00F HX 101
Atlanta        MOSUNNY   84  73  69 W8        30.03S HX  90
Charlotte      MOSUNNY   85  77  77 SW7       29.97S HX  95
Dallas DFW     CLOUDY    83  72  69 SW6       30.05R
Houston Bush   MOSUNNY   86  76  71 W9        30.06R HX  96
Wash National  PTSUNNY   83  77  82 S9        29.87F HX  92
Wash Dulles    MOSUNNY   83  77  82 SE8       29.87F HX  92
Baltimore      PTSUNNY   83  77  82 VRB5      29.86F HX  92
Philadelphia   CLOUDY    80  75  84 S8        29.87F
Newark         LGT RAIN  75  74  96 SW3       29.87S FOG
Laguardia      CLOUDY    76  75  97 VRB5      29.87S
J F K          CLOUDY    77  77 100 S10       29.89S
Boston         CLOUDY    75  69  81 S12       29.91F
Pittsburg      PTSUNNY   77  73  87 SW5       29.86R
Akron          PTSUNNY   82  64  54 W14       29.84S
Cleveland      MOSUNNY   81  65  58 SW18      29.83R
Cincinnati     MOSUNNY   79  71  76 W8        29.92R
Columbus       MOSUNNY   78  69  74 W13       29.87R
Detroit        CLOUDY    74  63  68 W20G25    29.77S
Chicago O`Hare PTSUNNY   72  61  68 NW14G22   29.87R
Minneapolis    CLOUDY    67  60  78 SW5       29.90R
Indianapolis   MOSUNNY   77  64  64 W10       29.91R
Toronto Canada PTSUNNY   77  66  69 SW21G28   29.68F

$$




USA.gov is the U.S. government's official web portal to all federal, state and local government web resources and services.